This is the latest recevied weather packets stored in our database for station/object PD2BVG. If no packets are shown the sender has not sent any weather packets the latest 10 day(s).
| Time | Temp. | Humidity | Pressure | Rain* | Wind** | Luminosity | Snow |
|---|---|---|---|---|---|---|---|
| 1788071278 | 17.78° C | 97% | 1009 hPa | 0 mm | - | 19 W/m² | - |
| 1788071217 | 17.78° C | 97% | 1009 hPa | 0 mm | - | 19 W/m² | - |
| 1788071157 | 17.78° C | 97% | 1009 hPa | 0 mm | - | 23 W/m² | - |
| 1788071097 | 17.78° C | 97% | 1009 hPa | 0 mm | - | 30 W/m² | - |
| 1788071039 | 17.78° C | 97% | 1009 hPa | 0 mm | - | 27 W/m² | - |
| 1788070977 | 17.78° C | 97% | 1009 hPa | 0 mm | - | 25 W/m² | - |
| 1788070920 | 17.78° C | 97% | 1009 hPa | 0 mm | - | 23 W/m² | - |
| 1788070859 | 17.78° C | 97% | 1008.9 hPa | 0 mm | - | 21 W/m² | - |
| 1788070797 | 17.78° C | 97% | 1008.8 hPa | 0 mm | - | 21 W/m² | - |
| 1788070737 | 17.78° C | 97% | 1009 hPa | 0 mm | - | 16 W/m² | - |
| 1788070677 | 17.78° C | 97% | 1008.9 hPa | 0 mm | - | 12 W/m² | - |
| 1788070617 | 17.78° C | 97% | 1008.9 hPa | 0 mm | - | 12 W/m² | - |
| 1788070556 | 17.78° C | 97% | 1009 hPa | 0 mm | - | 12 W/m² | - |
| 1788070496 | 17.78° C | 97% | 1009 hPa | 0 mm | - | 11 W/m² | - |
| 1788070437 | 17.78° C | 97% | 1008.9 hPa | 0 mm | - | 11 W/m² | - |
| 1788070377 | 17.78° C | 97% | 1008.9 hPa | 0 mm | - | 14 W/m² | - |
| 1788070317 | 17.78° C | 97% | 1008.9 hPa | 0 mm | - | 14 W/m² | - |
| 1788070257 | 17.78° C | 97% | 1008.8 hPa | 0 mm | - | 11 W/m² | - |
| 1788070197 | 17.78° C | 97% | 1008.9 hPa | 0 mm | - | 11 W/m² | - |
| 1788070137 | 17.78° C | 97% | 1008.9 hPa | 0 mm | - | 12 W/m² | - |
| 1788070077 | 17.78° C | 98% | 1008.7 hPa | 0 mm | - | 16 W/m² | - |
| 1788070017 | 17.78° C | 98% | 1008.8 hPa | 0 mm | - | 19 W/m² | - |
| 1788069958 | 17.78° C | 98% | 1008.8 hPa | 0 mm | - | 28 W/m² | - |
| 1788069898 | 17.78° C | 98% | 1008.8 hPa | 0 mm | - | 28 W/m² | - |
| 1788069840 | 17.78° C | 98% | 1008.8 hPa | 0 mm | - | 27 W/m² | - |
* Rain latest hour (hover to see other rain measurements)
** Current wind speed in m/s (hover to see current wind gust speed)